Bush, KY

8:11 AM EDT on August 24, 2016 (GMT -0400)
London-Corbin / McKee

Weather History for KLOZ - January, 2014

Change the Weather History Date:

Wednesday, January 15, 2014

  Actual Average Record
Temperature  
Mean Temperature 32 °F 35 °F  
Max Temperature 40 °F 44 °F 67 °F (2007)
Min Temperature 24 °F 26 °F -2 °F (1972)
Degree Days  
Heating Degree Days 33 30  
Month to date heating degree days 484 446  
Since 1 July heating degree days 2091 2098  
Cooling Degree Days 0 0  
Month to date cooling degree days 0 0  
Year to date cooling degree days 0 0  
Moisture  
Dew Point 24 °F    
Average Humidity 68    
Maximum Humidity 89    
Minimum Humidity 47    
Precipitation  
Precipitation 0.01 in 0.11 in 0.89 in (1959)
Month to date precipitation 2.09 1.71  
Year to date precipitation 2.09 1.71  
Sea Level Pressure  
Sea Level Pressure 30.03 in    
Wind  
Wind Speed 7 mph (WNW)    
Max Wind Speed 15 mph    
Max Gust Speed 19 mph    
Visibility 10 miles    
Events Rain , Snow    
T = Trace of Precipitation, MM = Missing Value Source: NWS Daily Summary

Daily Weather History Graph

Daily Weather History Graph

Search for Another Location

Airport or City:

Trip Planner

Search our weather history database for the weather conditions in past years. The results will help you decide how hot, cold, wet, or windy it might be!

Date:

Astronomy

Jan. 15, 2014 Rise Set
Actual Time 7:48 AM EST 5:43 PM EST
Civil Twilight 7:20 AM EST 6:11 PM EST
Nautical Twilight 6:48 AM EST 6:43 PM EST
Astronomical Twilight 6:17 AM EST 7:14 PM EST
Moon 5:38 PM EST (1/15) 7:05 AM EST (1/15)
Length of Visible Light 10h 50m
Length of Day
9h 54m
Full, 100% of the Moon is Illuminated
Jan 15
Full
Jan 15
Full
Jan 24
Last Quarter
Jan 30
New
Feb 6
First Quarter

Hourly Weather History & Observations

Time (EST) Temp. Windchill Dew Point Humidity Pressure Visibility Wind Dir Wind Speed Gust Speed Precip Events Conditions
12:53 AM 37.0 °F 30.4 °F 32.0 °F 82% 29.97 in 10.0 mi WNW 9.2 mph - 0.01 in Rain Light Rain
1:00 AM 37.0 °F 32.4 °F 32.0 °F 82% 29.97 in 10.0 mi NW 5.8 mph - 0.00 in   Overcast
1:33 AM 36.0 °F - 30.9 °F 82% 29.97 in 6.0 mi Calm Calm - 0.00 in Snow Light Snow
1:45 AM 36.0 °F 33.3 °F 32.0 °F 86% 29.96 in 9.0 mi South 3.5 mph - 0.00 in   Overcast
1:53 AM 36.0 °F 33.3 °F 32.0 °F 86% 29.98 in 10.0 mi SSW 3.5 mph - 0.00 in   Overcast
2:16 AM 36.0 °F 33.3 °F 32.0 °F 86% 29.98 in 10.0 mi SSW 3.5 mph - 0.00 in Rain Light Rain
2:53 AM 36.0 °F - 32.0 °F 86% 29.99 in 10.0 mi Calm Calm - 0.00 in   Overcast
3:26 AM 36.0 °F - 32.0 °F 86% 29.98 in 10.0 mi Calm Calm - 0.00 in   Overcast
3:44 AM 36.0 °F - 32.0 °F 86% 29.98 in 10.0 mi Calm Calm - 0.00 in   Overcast
3:53 AM 36.0 °F - 32.0 °F 86% 29.99 in 10.0 mi Calm Calm - 0.00 in   Overcast
4:43 AM 36.0 °F 31.1 °F 32.0 °F 86% 29.98 in 10.0 mi West 5.8 mph - N/A   Scattered Clouds
4:53 AM 36.0 °F 29.6 °F 32.0 °F 86% 29.99 in 10.0 mi West 8.1 mph - N/A   Scattered Clouds
5:26 AM 36.0 °F 32.1 °F 30.9 °F 82% 29.99 in 10.0 mi NW 4.6 mph - N/A   Mostly Cloudy
5:53 AM 35.1 °F 26.9 °F 28.0 °F 76% 30.01 in 10.0 mi NW 11.5 mph - N/A   Overcast
6:25 AM 34.0 °F 29.8 °F 25.0 °F 70% 30.00 in 10.0 mi NW 4.6 mph - N/A   Mostly Cloudy
6:53 AM 33.1 °F 28.7 °F 24.1 °F 70% 30.02 in 10.0 mi NW 4.6 mph - N/A   Scattered Clouds
7:53 AM 32.0 °F 27.5 °F 25.0 °F 75% 30.04 in 10.0 mi West 4.6 mph - N/A   Overcast
8:53 AM 32.0 °F 26.4 °F 24.1 °F 73% 30.06 in 10.0 mi WNW 5.8 mph - N/A   Mostly Cloudy
9:53 AM 32.0 °F 24.8 °F 21.9 °F 66% 30.07 in 10.0 mi WNW 8.1 mph - N/A   Partly Cloudy
10:53 AM 32.0 °F 23.6 °F 19.9 °F 61% 30.08 in 10.0 mi West 10.4 mph - N/A   Mostly Cloudy
11:53 AM 32.0 °F 24.8 °F 18.0 °F 56% 30.06 in 10.0 mi NW 8.1 mph - N/A   Partly Cloudy
12:53 PM 32.0 °F 24.8 °F 18.0 °F 56% 30.04 in 10.0 mi WNW 8.1 mph - N/A   Mostly Cloudy
1:53 PM 35.1 °F 27.4 °F 18.0 °F 50% 30.02 in 10.0 mi West 10.4 mph - N/A   Scattered Clouds
2:53 PM 35.1 °F 26.4 °F 17.1 °F 48% 30.02 in 10.0 mi WNW 12.7 mph - N/A   Scattered Clouds
3:53 PM 34.0 °F 28.0 °F 15.1 °F 46% 30.04 in 10.0 mi West 6.9 mph - N/A   Clear
4:53 PM 33.1 °F 24.4 °F 15.1 °F 48% 30.05 in 10.0 mi NW 11.5 mph - N/A   Mostly Cloudy
5:53 PM 30.9 °F 25.2 °F 15.1 °F 52% 30.07 in 10.0 mi NW 5.8 mph - N/A   Overcast
6:53 PM 30.0 °F 23.2 °F 14.0 °F 51% 30.09 in 10.0 mi NW 6.9 mph - N/A   Overcast
7:53 PM 28.9 °F 20.4 °F 17.1 °F 61% 30.10 in 10.0 mi NNW 9.2 mph - N/A   Mostly Cloudy
8:53 PM 28.0 °F 20.0 °F 18.0 °F 66% 30.11 in 10.0 mi NW 8.1 mph - N/A   Scattered Clouds
9:53 PM 27.0 °F - 18.0 °F 69% 30.10 in 10.0 mi Calm Calm - N/A   Partly Cloudy
10:53 PM 25.0 °F 20.7 °F 17.1 °F 72% 30.10 in 10.0 mi WNW 3.5 mph - N/A   Clear
11:20 PM 25.0 °F 20.7 °F 18.0 °F 75% 30.06 in 10.0 mi West 3.5 mph - N/A   Mostly Cloudy
11:50 PM 24.8 °F 20.5 °F 17.6 °F 74% 30.06 in 10.0 mi WNW 3.5 mph - N/A   Scattered Clouds
11:53 PM 24.1 °F 19.7 °F 17.1 °F 75% 30.09 in 10.0 mi WNW 3.5 mph - N/A   Scattered Clouds